Time,TemperatureF,DewpointF,PressureIn,WindDirection,WindDirectionDegrees,WindSpeedMPH,WindSpeedGustMPH,Humidity,HourlyPrecipIn,Conditions,Clouds,dailyrainin,SoftwareType,DateUTC
2013-03-12 00:02:00,31.1,27.7,29.83,WSW,250,14.0,14.0,87,0.00,,,0.00,Wunderground v.1.15,2013-03-12 05:02:00,
2013-03-12 00:08:00,31.1,27.7,29.84,WSW,255,14.0,18.0,87,0.00,,,0.00,Wunderground v.1.15,2013-03-12 05:08:00,
2013-03-12 00:14:00,31.0,27.6,29.84,West,268,14.0,16.0,87,0.00,,,0.00,Wunderground v.1.15,2013-03-12 05:14:00,
2013-03-12 00:20:00,31.0,27.6,29.84,West,267,15.0,17.0,87,0.00,,,0.00,Wunderground v.1.15,2013-03-12 05:20:00,
2013-03-12 00:28:00,31.0,27.3,29.84,West,263,16.0,17.0,86,0.00,,,0.00,Wunderground v.1.15,2013-03-12 05:28:00,
2013-03-12 00:34:00,31.0,27.3,29.84,West,263,16.0,17.0,86,0.00,,,0.01,Wunderground v.1.15,2013-03-12 05:34:00,
2013-03-12 00:40:00,31.0,27.3,29.84,WSW,252,16.0,21.0,86,0.00,,,0.01,Wunderground v.1.15,2013-03-12 05:40:00,
2013-03-12 00:48:00,30.8,27.1,29.85,West,263,15.0,17.0,86,0.00,,,0.01,Wunderground v.1.15,2013-03-12 05:48:00,
2013-03-12 00:54:00,30.7,27.0,29.85,West,260,15.0,17.0,86,0.00,,,0.01,Wunderground v.1.15,2013-03-12 05:54:00,
2013-03-12 01:00:00,30.6,26.6,29.85,West,272,16.0,19.0,85,0.00,,,0.01,Wunderground v.1.15,2013-03-12 06:00:00,
2013-03-12 01:08:00,30.5,26.5,29.85,West,259,17.0,19.0,85,0.00,,,0.01,Wunderground v.1.15,2013-03-12 06:08:00,
2013-03-12 01:14:00,30.4,26.4,29.85,West,269,16.0,20.0,85,0.00,,,0.01,Wunderground v.1.15,2013-03-12 06:14:00,
2013-03-12 01:20:00,30.3,26.0,29.85,West,267,15.0,15.0,84,0.00,,,0.01,Wunderground v.1.15,2013-03-12 06:20:00,
2013-03-12 01:28:00,30.4,26.1,29.85,West,272,15.0,19.0,84,0.00,,,0.01,Wunderground v.1.15,2013-03-12 06:28:00,
2013-03-12 01:34:00,30.3,26.3,29.86,WSW,257,14.0,17.0,85,0.00,,,0.01,Wunderground v.1.15,2013-03-12 06:34:00,
2013-03-12 01:40:00,30.2,26.2,29.86,West,270,15.0,15.0,85,0.00,,,0.01,Wunderground v.1.15,2013-03-12 06:40:00,
2013-03-12 01:48:00,30.0,25.8,29.86,West,263,15.0,18.0,84,0.00,,,0.01,Wunderground v.1.15,2013-03-12 06:48:00,
2013-03-12 01:54:00,29.9,25.7,29.86,WSW,254,16.0,18.0,84,0.00,,,0.01,Wunderground v.1.15,2013-03-12 06:54:00,
2013-03-12 02:00:00,29.9,25.7,29.86,West,263,15.0,15.0,84,0.00,,,0.01,Wunderground v.1.15,2013-03-12 07:00:00,
2013-03-12 02:06:00,29.8,25.3,29.86,West,265,15.0,21.0,83,0.00,,,0.01,Wunderground v.1.15,2013-03-12 07:06:00,
2013-03-12 02:12:00,29.8,25.0,29.87,West,265,17.0,21.0,82,0.00,,,0.01,Wunderground v.1.15,2013-03-12 07:12:00,
2013-03-12 02:18:00,29.8,25.3,29.87,West,273,17.0,21.0,83,0.00,,,0.01,Wunderground v.1.15,2013-03-12 07:18:00,
2013-03-12 02:24:00,29.8,25.0,29.87,West,260,16.0,22.0,82,0.00,,,0.01,Wunderground v.1.15,2013-03-12 07:24:00,
2013-03-12 02:30:00,29.8,25.3,29.87,WSW,256,16.0,16.0,83,0.00,,,0.01,Wunderground v.1.15,2013-03-12 07:30:00,
2013-03-12 02:36:00,29.8,25.3,29.87,WSW,250,15.0,20.0,83,0.00,,,0.01,Wunderground v.1.15,2013-03-12 07:36:00,
2013-03-12 02:42:00,29.7,24.9,29.87,West,276,16.0,18.0,82,0.00,,,0.01,Wunderground v.1.15,2013-03-12 07:42:00,
2013-03-12 02:48:00,29.7,25.2,29.88,West,261,15.0,18.0,83,0.00,,,0.01,Wunderground v.1.15,2013-03-12 07:48:00,
2013-03-12 02:54:00,29.7,24.9,29.88,WSW,258,16.0,18.0,82,0.00,,,0.01,Wunderground v.1.15,2013-03-12 07:54:00,
2013-03-12 03:00:00,29.8,25.3,29.88,West,263,15.0,18.0,83,0.00,,,0.01,Wunderground v.1.15,2013-03-12 08:00:00,
2013-03-12 03:06:00,29.7,24.9,29.88,West,267,16.0,18.0,82,0.00,,,0.01,Wunderground v.1.15,2013-03-12 08:06:00,
2013-03-12 03:14:00,29.7,25.2,29.88,West,263,14.0,18.0,83,0.00,,,0.01,Wunderground v.1.15,2013-03-12 08:14:00,
2013-03-12 03:20:00,29.7,25.2,29.88,West,266,14.0,20.0,83,0.00,,,0.01,Wunderground v.1.15,2013-03-12 08:20:00,
2013-03-12 03:26:00,29.6,24.5,29.88,West,265,15.0,20.0,81,0.00,,,0.01,Wunderground v.1.15,2013-03-12 08:26:00,
2013-03-12 03:32:00,29.6,24.5,29.88,WSW,257,16.0,17.0,81,0.00,,,0.01,Wunderground v.1.15,2013-03-12 08:32:00,
2013-03-12 03:38:00,29.6,24.8,29.88,West,270,15.0,17.0,82,0.00,,,0.01,Wunderground v.1.15,2013-03-12 08:38:00,
2013-03-12 03:44:00,29.6,24.8,29.88,West,272,13.0,14.0,82,0.00,,,0.01,Wunderground v.1.15,2013-03-12 08:44:00,
2013-03-12 03:50:00,29.6,25.1,29.88,West,271,12.0,12.0,83,0.00,,,0.01,Wunderground v.1.15,2013-03-12 08:50:00,
2013-03-12 03:56:00,29.6,24.8,29.88,West,281,13.0,14.0,82,0.00,,,0.01,Wunderground v.1.15,2013-03-12 08:56:00,
2013-03-12 04:02:00,29.5,24.7,29.88,West,265,14.0,16.0,82,0.00,,,0.01,Wunderground v.1.15,2013-03-12 09:02:00,
2013-03-12 04:08:00,29.4,24.6,29.88,WNW,283,15.0,19.0,82,0.00,,,0.01,Wunderground v.1.15,2013-03-12 09:08:00,
2013-03-12 04:14:00,29.4,24.9,29.88,West,265,16.0,16.0,83,0.00,,,0.01,Wunderground v.1.15,2013-03-12 09:14:00,
2013-03-12 04:20:00,29.3,25.1,29.88,WNW,290,14.0,16.0,84,0.00,,,0.01,Wunderground v.1.15,2013-03-12 09:20:00,
2013-03-12 04:26:00,29.0,24.5,29.89,WNW,289,16.0,19.0,83,0.00,,,0.01,Wunderground v.1.15,2013-03-12 09:26:00,
2013-03-12 04:32:00,28.9,25.0,29.89,West,276,15.0,16.0,85,0.00,,,0.01,Wunderground v.1.15,2013-03-12 09:32:00,
2013-03-12 04:38:00,28.8,24.9,29.89,WNW,287,15.0,18.0,85,0.00,,,0.01,Wunderground v.1.15,2013-03-12 09:38:00,
2013-03-12 04:44:00,28.8,24.9,29.89,West,265,14.0,15.0,85,0.00,,,0.01,Wunderground v.1.15,2013-03-12 09:44:00,
2013-03-12 04:50:00,28.7,24.5,29.89,West,270,14.0,14.0,84,0.00,,,0.01,Wunderground v.1.15,2013-03-12 09:50:00,
2013-03-12 04:58:00,28.7,25.0,29.89,West,268,14.0,17.0,86,0.00,,,0.01,Wunderground v.1.15,2013-03-12 09:58:00,
2013-03-12 05:04:00,28.7,24.8,29.89,WSW,256,13.0,14.0,85,0.00,,,0.01,Wunderground v.1.15,2013-03-12 10:04:00,
2013-03-12 05:10:00,28.7,24.8,29.89,West,259,14.0,16.0,85,0.00,,,0.01,Wunderground v.1.15,2013-03-12 10:10:00,
2013-03-12 05:16:00,28.7,24.8,29.89,WSW,255,14.0,17.0,85,0.00,,,0.01,Wunderground v.1.15,2013-03-12 10:16:00,
2013-03-12 05:22:00,28.7,24.8,29.89,West,273,14.0,15.0,85,0.00,,,0.01,Wunderground v.1.15,2013-03-12 10:22:00,
2013-03-12 05:28:00,28.8,24.9,29.89,WNW,288,13.0,15.0,85,0.00,,,0.01,Wunderground v.1.15,2013-03-12 10:28:00,
2013-03-12 05:34:00,28.8,24.9,29.90,West,279,13.0,15.0,85,0.00,,,0.01,Wunderground v.1.15,2013-03-12 10:34:00,
2013-03-12 05:40:00,28.8,24.9,29.90,WNW,294,13.0,13.0,85,0.00,,,0.01,Wunderground v.1.15,2013-03-12 10:40:00,
2013-03-12 05:46:00,28.9,25.0,29.90,West,281,12.0,14.0,85,0.00,,,0.01,Wunderground v.1.15,2013-03-12 10:46:00,
2013-03-12 05:52:00,29.0,25.3,29.91,WNW,285,11.0,15.0,86,0.00,,,0.01,Wunderground v.1.15,2013-03-12 10:52:00,
2013-03-12 05:58:00,28.9,25.2,29.90,West,267,10.0,15.0,86,0.00,,,0.01,Wunderground v.1.15,2013-03-12 10:58:00,
2013-03-12 06:04:00,28.8,24.9,29.91,WNW,286,11.0,13.0,85,0.00,,,0.01,Wunderground v.1.15,2013-03-12 11:04:00,
2013-03-12 06:10:00,28.5,24.3,29.91,WSW,256,12.0,12.0,84,0.00,,,0.01,Wunderground v.1.15,2013-03-12 11:10:00,
2013-03-12 06:18:00,28.2,24.3,29.92,West,259,12.0,14.0,85,0.00,,,0.01,Wunderground v.1.15,2013-03-12 11:18:00,
2013-03-12 06:24:00,28.0,24.1,29.92,West,269,12.0,13.0,85,0.00,,,0.01,Wunderground v.1.15,2013-03-12 11:24:00,
2013-03-12 06:30:00,27.8,23.9,29.93,West,262,13.0,13.0,85,0.00,,,0.01,Wunderground v.1.15,2013-03-12 11:30:00,
2013-03-12 06:36:00,27.6,23.4,29.93,West,266,13.0,18.0,84,0.00,,,0.01,Wunderground v.1.15,2013-03-12 11:36:00,
2013-03-12 06:42:00,27.5,23.6,29.93,West,266,13.0,13.0,85,0.00,,,0.01,Wunderground v.1.15,2013-03-12 11:42:00,
2013-03-12 06:48:00,27.4,23.5,29.93,West,263,12.0,18.0,85,0.00,,,0.01,Wunderground v.1.15,2013-03-12 11:48:00,
2013-03-12 06:54:00,27.3,23.4,29.93,West,267,14.0,16.0,85,0.00,,,0.01,Wunderground v.1.15,2013-03-12 11:54:00,
2013-03-12 07:00:00,27.1,23.2,29.93,West,275,13.0,13.0,85,0.00,,,0.01,Wunderground v.1.15,2013-03-12 12:00:00,
2013-03-12 07:06:00,27.1,23.5,29.93,WSW,255,12.0,13.0,86,0.00,,,0.01,Wunderground v.1.15,2013-03-12 12:06:00,
2013-03-12 07:12:00,27.0,23.4,29.93,SW,225,11.0,11.0,86,0.00,,,0.01,Wunderground v.1.15,2013-03-12 12:12:00,
2013-03-12 07:18:00,26.9,23.3,29.93,West,269,11.0,14.0,86,0.00,,,0.01,Wunderground v.1.15,2013-03-12 12:18:00,
2013-03-12 07:24:00,26.9,23.0,29.93,WSW,257,11.0,11.0,85,0.00,,,0.01,Wunderground v.1.15,2013-03-12 12:24:00,
2013-03-12 07:30:00,26.9,22.7,29.93,WSW,248,10.0,11.0,84,0.00,,,0.01,Wunderground v.1.15,2013-03-12 12:30:00,
2013-03-12 07:36:00,27.0,22.8,29.93,WSW,238,10.0,11.0,84,0.00,,,0.01,Wunderground v.1.15,2013-03-12 12:36:00,
2013-03-12 07:42:00,27.1,22.6,29.93,West,260,10.0,10.0,83,0.00,,,0.01,Wunderground v.1.15,2013-03-12 12:42:00,
2013-03-12 07:48:00,27.2,22.4,29.93,WSW,258,11.0,11.0,82,0.00,,,0.01,Wunderground v.1.15,2013-03-12 12:48:00,
2013-03-12 07:54:00,27.3,22.2,29.94,West,275,11.0,13.0,81,0.00,,,0.01,Wunderground v.1.15,2013-03-12 12:54:00,
2013-03-12 08:00:00,27.3,21.9,29.93,West,271,12.0,12.0,80,0.00,,,0.01,Wunderground v.1.15,2013-03-12 13:00:00,
2013-03-12 08:06:00,27.3,21.6,29.93,West,265,12.0,13.0,79,0.00,,,0.01,Wunderground v.1.15,2013-03-12 13:06:00,
2013-03-12 08:12:00,27.4,22.0,29.94,WSW,257,11.0,11.0,80,0.00,,,0.01,Wunderground v.1.15,2013-03-12 13:12:00,
2013-03-12 08:18:00,27.4,21.7,29.93,WNW,286,11.0,13.0,79,0.00,,,0.01,Wunderground v.1.15,2013-03-12 13:18:00,
2013-03-12 08:24:00,27.5,21.5,29.94,WNW,284,12.0,13.0,78,0.00,,,0.01,Wunderground v.1.15,2013-03-12 13:24:00,
2013-03-12 08:30:00,27.6,21.9,29.94,West,268,12.0,12.0,79,0.00,,,0.01,Wunderground v.1.15,2013-03-12 13:30:00,
2013-03-12 08:38:00,27.7,21.7,29.94,West,273,12.0,16.0,78,0.00,,,0.01,Wunderground v.1.15,2013-03-12 13:38:00,
2013-03-12 08:44:00,27.9,22.2,29.94,West,268,12.0,13.0,79,0.00,,,0.01,Wunderground v.1.15,2013-03-12 13:44:00,
2013-03-12 08:50:00,28.0,22.3,29.94,West,280,12.0,12.0,79,0.00,,,0.01,Wunderground v.1.15,2013-03-12 13:50:00,
2013-03-12 08:56:00,28.1,22.1,29.94,West,265,12.0,12.0,78,0.00,,,0.01,Wunderground v.1.15,2013-03-12 13:56:00,
2013-03-12 09:02:00,28.2,22.2,29.94,West,271,11.0,13.0,78,0.00,,,0.01,Wunderground v.1.15,2013-03-12 14:02:00,
2013-03-12 09:08:00,28.4,22.4,29.94,West,271,12.0,15.0,78,0.00,,,0.01,Wunderground v.1.15,2013-03-12 14:08:00,
2013-03-12 09:14:00,28.6,22.6,29.94,WSW,254,12.0,15.0,78,0.00,,,0.01,Wunderground v.1.15,2013-03-12 14:14:00,
2013-03-12 09:20:00,28.9,23.2,29.95,West,259,12.0,16.0,79,0.00,,,0.01,Wunderground v.1.15,2013-03-12 14:20:00,
2013-03-12 09:28:00,29.0,23.0,29.95,West,271,12.0,16.0,78,0.00,,,0.01,Wunderground v.1.15,2013-03-12 14:28:00,
2013-03-12 09:34:00,29.2,23.2,29.96,West,276,12.0,14.0,78,0.00,,,0.01,Wunderground v.1.15,2013-03-12 14:34:00,
2013-03-12 09:40:00,29.4,23.1,29.96,West,266,12.0,12.0,77,0.00,,,0.01,Wunderground v.1.15,2013-03-12 14:40:00,
2013-03-12 09:46:00,29.4,23.4,29.96,West,275,13.0,15.0,78,0.00,,,0.01,Wunderground v.1.15,2013-03-12 14:46:00,
2013-03-12 09:52:00,29.4,23.4,29.96,West,265,14.0,16.0,78,0.00,,,0.01,Wunderground v.1.15,2013-03-12 14:52:00,
2013-03-12 09:58:00,29.5,23.8,29.96,West,261,15.0,19.0,79,0.00,,,0.01,Wunderground v.1.15,2013-03-12 14:58:00,
2013-03-12 10:04:00,29.8,24.4,29.96,West,269,14.0,17.0,80,0.00,,,0.01,Wunderground v.1.15,2013-03-12 15:04:00,
2013-03-12 10:10:00,29.8,23.8,29.97,WSW,253,14.0,14.0,78,0.00,,,0.01,Wunderground v.1.15,2013-03-12 15:10:00,
2013-03-12 10:16:00,29.6,24.2,29.97,West,279,15.0,17.0,80,0.00,,,0.01,Wunderground v.1.15,2013-03-12 15:16:00,
2013-03-12 10:22:00,29.9,24.5,29.97,West,262,15.0,15.0,80,0.00,,,0.01,Wunderground v.1.15,2013-03-12 15:22:00,
2013-03-12 10:28:00,30.3,25.2,29.97,West,267,14.0,18.0,81,0.00,,,0.01,Wunderground v.1.15,2013-03-12 15:28:00,
2013-03-12 10:34:00,30.5,25.4,29.97,West,260,14.0,15.0,81,0.00,,,0.01,Wunderground v.1.15,2013-03-12 15:34:00,
2013-03-12 10:40:00,30.5,25.4,29.97,West,272,14.0,14.0,81,0.00,,,0.01,Wunderground v.1.15,2013-03-12 15:40:00,
2013-03-12 10:46:00,30.7,25.6,29.97,West,271,14.0,17.0,81,0.00,,,0.01,Wunderground v.1.15,2013-03-12 15:46:00,
2013-03-12 10:52:00,30.3,24.9,29.97,West,267,14.0,16.0,80,0.00,,,0.01,Wunderground v.1.15,2013-03-12 15:52:00,
2013-03-12 10:58:00,30.5,25.7,29.97,WSW,257,14.0,17.0,82,0.00,,,0.01,Wunderground v.1.15,2013-03-12 15:58:00,
2013-03-12 11:04:00,30.7,25.6,29.97,West,267,14.0,19.0,81,0.00,,,0.01,Wunderground v.1.15,2013-03-12 16:04:00,
2013-03-12 11:10:00,30.8,26.2,29.97,WSW,254,14.0,19.0,83,0.00,,,0.01,Wunderground v.1.15,2013-03-12 16:10:00,
2013-03-12 11:16:00,31.4,26.5,29.97,WSW,240,12.0,13.0,82,0.00,,,0.01,Wunderground v.1.15,2013-03-12 16:16:00,
2013-03-12 11:22:00,32.0,26.8,29.97,WSW,257,11.0,11.0,81,0.00,,,0.01,Wunderground v.1.15,2013-03-12 16:22:00,
2013-03-12 11:28:00,32.3,26.5,29.97,WSW,257,11.0,11.0,79,0.00,,,0.01,Wunderground v.1.15,2013-03-12 16:28:00,
2013-03-12 11:34:00,32.6,27.1,29.97,WSW,252,11.0,11.0,80,0.00,,,0.01,Wunderground v.1.15,2013-03-12 16:34:00,
2013-03-12 11:40:00,32.9,27.7,29.97,WSW,252,11.0,16.0,81,0.00,,,0.01,Wunderground v.1.15,2013-03-12 16:40:00,
2013-03-12 11:48:00,32.8,27.3,29.96,West,269,12.0,15.0,80,0.00,,,0.01,Wunderground v.1.15,2013-03-12 16:48:00,
2013-03-12 11:54:00,32.9,26.8,29.96,WSW,242,12.0,12.0,78,0.00,,,0.01,Wunderground v.1.15,2013-03-12 16:54:00,
2013-03-12 12:00:00,33.1,26.7,29.96,West,265,11.0,14.0,77,0.00,,,0.01,Wunderground v.1.15,2013-03-12 17:00:00,
2013-03-12 12:06:00,33.4,27.6,29.96,West,265,12.0,17.0,79,0.00,,,0.01,Wunderground v.1.15,2013-03-12 17:06:00,
2013-03-12 12:12:00,33.7,27.9,29.96,WSW,257,13.0,16.0,79,0.00,,,0.01,Wunderground v.1.15,2013-03-12 17:12:00,
2013-03-12 12:18:00,33.8,27.7,29.96,WSW,251,14.0,16.0,78,0.00,,,0.01,Wunderground v.1.15,2013-03-12 17:18:00,
2013-03-12 12:24:00,34.3,28.5,29.96,West,265,13.0,13.0,79,0.00,,,0.01,Wunderground v.1.15,2013-03-12 17:24:00,
2013-03-12 12:30:00,34.2,28.1,29.96,WSW,254,14.0,15.0,78,0.00,,,0.01,Wunderground v.1.15,2013-03-12 17:30:00,
2013-03-12 12:36:00,33.9,26.5,29.97,West,281,15.0,19.0,74,0.00,,,0.01,Wunderground v.1.15,2013-03-12 17:36:00,
2013-03-12 12:42:00,34.3,27.5,29.97,WNW,283,16.0,20.0,76,0.00,,,0.01,Wunderground v.1.15,2013-03-12 17:42:00,
2013-03-12 12:48:00,34.3,27.2,29.97,WSW,258,16.0,20.0,75,0.00,,,0.01,Wunderground v.1.15,2013-03-12 17:48:00,
2013-03-12 12:54:00,34.0,26.9,29.96,West,263,16.0,17.0,75,0.00,,,0.01,Wunderground v.1.15,2013-03-12 17:54:00,
2013-03-12 13:00:00,34.8,28.0,29.96,West,269,16.0,19.0,76,0.00,,,0.01,Wunderground v.1.15,2013-03-12 18:00:00,
2013-03-12 13:06:00,34.5,27.4,29.96,West,279,17.0,19.0,75,0.00,,,0.01,Wunderground v.1.15,2013-03-12 18:06:00,
2013-03-12 13:12:00,35.1,28.9,29.96,WSW,254,15.0,17.0,78,0.00,,,0.01,Wunderground v.1.15,2013-03-12 18:12:00,
2013-03-12 13:18:00,35.4,28.9,29.96,West,265,15.0,17.0,77,0.00,,,0.01,Wunderground v.1.15,2013-03-12 18:18:00,
2013-03-12 13:24:00,35.7,29.2,29.95,WSW,257,16.0,19.0,77,0.00,,,0.01,Wunderground v.1.15,2013-03-12 18:24:00,
2013-03-12 13:30:00,35.8,29.0,29.95,West,259,15.0,15.0,76,0.00,,,0.01,Wunderground v.1.15,2013-03-12 18:30:00,
2013-03-12 13:36:00,36.7,29.8,29.95,WSW,257,13.0,17.0,76,0.00,,,0.01,Wunderground v.1.15,2013-03-12 18:36:00,
2013-03-12 13:42:00,36.5,29.0,29.94,WSW,250,14.0,15.0,74,0.00,,,0.01,Wunderground v.1.15,2013-03-12 18:42:00,
2013-03-12 13:48:00,37.0,29.8,29.94,WSW,249,15.0,17.0,75,0.00,,,0.01,Wunderground v.1.15,2013-03-12 18:48:00,
2013-03-12 13:54:00,36.8,28.3,29.94,WSW,255,16.0,16.0,71,0.00,,,0.01,Wunderground v.1.15,2013-03-12 18:54:00,
2013-03-12 14:00:00,37.1,27.9,29.94,WSW,242,16.0,20.0,69,0.00,,,0.01,Wunderground v.1.15,2013-03-12 19:00:00,
2013-03-12 14:06:00,37.0,29.1,29.94,WSW,240,14.0,20.0,73,0.00,,,0.01,Wunderground v.1.15,2013-03-12 19:06:00,
2013-03-12 14:12:00,37.6,29.0,29.94,West,265,14.0,15.0,71,0.00,,,0.01,Wunderground v.1.15,2013-03-12 19:12:00,
2013-03-12 14:18:00,37.3,29.4,29.94,West,261,15.0,21.0,73,0.00,,,0.01,Wunderground v.1.15,2013-03-12 19:18:00,
2013-03-12 14:24:00,36.8,29.0,29.94,West,259,14.0,16.0,73,0.00,,,0.01,Wunderground v.1.15,2013-03-12 19:24:00,
2013-03-12 14:30:00,35.4,28.6,29.94,WSW,254,16.0,18.0,76,0.00,,,0.01,Wunderground v.1.15,2013-03-12 19:30:00,
2013-03-12 14:36:00,33.8,29.2,29.95,West,262,18.0,23.0,83,0.00,,,0.01,Wunderground v.1.15,2013-03-12 19:36:00,
2013-03-12 14:44:00,33.1,30.5,29.95,WSW,250,18.0,18.0,90,0.00,,,0.01,Wunderground v.1.15,2013-03-12 19:44:00,
2013-03-12 14:50:00,32.6,30.3,29.95,WSW,242,16.0,18.0,91,0.00,,,0.01,Wunderground v.1.15,2013-03-12 19:50:00,
2013-03-12 14:58:00,32.1,29.8,29.95,WSW,254,14.0,16.0,91,0.00,,,0.01,Wunderground v.1.15,2013-03-12 19:58:00,
2013-03-12 15:04:00,31.9,29.8,29.95,WSW,254,14.0,17.0,92,0.00,,,0.01,Wunderground v.1.15,2013-03-12 20:04:00,
2013-03-12 15:10:00,32.0,30.2,29.95,WSW,255,12.0,17.0,93,0.00,,,0.01,Wunderground v.1.15,2013-03-12 20:10:00,
2013-03-12 15:16:00,31.9,30.1,29.95,WSW,254,11.0,16.0,93,0.00,,,0.01,Wunderground v.1.15,2013-03-12 20:16:00,
2013-03-12 15:22:00,31.9,30.1,29.95,WSW,250,12.0,15.0,93,0.00,,,0.01,Wunderground v.1.15,2013-03-12 20:22:00,
2013-03-12 15:28:00,31.8,30.0,29.95,WSW,253,13.0,15.0,93,0.00,,,0.01,Wunderground v.1.15,2013-03-12 20:28:00,
2013-03-12 15:34:00,32.0,30.2,29.95,West,260,13.0,15.0,93,0.00,,,0.01,Wunderground v.1.15,2013-03-12 20:34:00,
2013-03-12 15:40:00,32.1,30.3,29.95,WSW,255,15.0,18.0,93,0.00,,,0.01,Wunderground v.1.15,2013-03-12 20:40:00,
2013-03-12 15:46:00,32.3,30.5,29.95,West,259,16.0,18.0,93,0.00,,,0.01,Wunderground v.1.15,2013-03-12 20:46:00,
2013-03-12 15:52:00,32.6,30.8,29.95,WSW,253,16.0,18.0,93,0.00,,,0.01,Wunderground v.1.15,2013-03-12 20:52:00,
2013-03-12 15:58:00,32.7,30.6,29.95,West,264,17.0,18.0,92,0.00,,,0.01,Wunderground v.1.15,2013-03-12 20:58:00,
2013-03-12 16:04:00,32.6,30.3,29.95,West,267,17.0,17.0,91,0.00,,,0.01,Wunderground v.1.15,2013-03-12 21:04:00,
2013-03-12 16:10:00,32.7,29.8,29.95,West,269,17.0,20.0,89,0.00,,,0.01,Wunderground v.1.15,2013-03-12 21:10:00,
2013-03-12 16:18:00,33.3,29.8,29.96,West,263,20.0,25.0,87,0.00,,,0.01,Wunderground v.1.15,2013-03-12 21:18:00,
2013-03-12 16:24:00,33.9,29.9,29.96,West,273,20.0,23.0,85,0.00,,,0.01,Wunderground v.1.15,2013-03-12 21:24:00,
2013-03-12 16:30:00,33.4,29.1,29.96,West,270,20.0,23.0,84,0.00,,,0.01,Wunderground v.1.15,2013-03-12 21:30:00,
2013-03-12 16:36:00,33.3,29.3,29.96,West,268,17.0,18.0,85,0.00,,,0.01,Wunderground v.1.15,2013-03-12 21:36:00,
2013-03-12 16:42:00,33.3,28.7,29.96,West,261,17.0,17.0,83,0.00,,,0.01,Wunderground v.1.15,2013-03-12 21:42:00,
2013-03-12 16:48:00,33.7,29.7,29.96,West,271,17.0,17.0,85,0.00,,,0.01,Wunderground v.1.15,2013-03-12 21:48:00,
2013-03-12 16:54:00,34.3,29.4,29.95,West,277,16.0,17.0,82,0.00,,,0.01,Wunderground v.1.15,2013-03-12 21:54:00,
2013-03-12 17:02:00,34.4,30.1,29.96,West,269,16.0,18.0,84,0.00,,,0.01,Wunderground v.1.15,2013-03-12 22:02:00,
2013-03-12 17:08:00,34.1,28.9,29.95,WSW,257,17.0,20.0,81,0.00,,,0.01,Wunderground v.1.15,2013-03-12 22:08:00,
2013-03-12 17:14:00,33.6,29.0,29.95,WSW,238,18.0,18.0,83,0.00,,,0.01,Wunderground v.1.15,2013-03-12 22:14:00,
2013-03-12 17:20:00,33.5,28.9,29.95,West,261,16.0,18.0,83,0.00,,,0.01,Wunderground v.1.15,2013-03-12 22:20:00,
2013-03-12 17:26:00,33.8,29.5,29.95,WSW,252,15.0,16.0,84,0.00,,,0.01,Wunderground v.1.15,2013-03-12 22:26:00,
2013-03-12 17:32:00,33.8,29.2,29.95,WSW,256,15.0,15.0,83,0.00,,,0.01,Wunderground v.1.15,2013-03-12 22:32:00,
2013-03-12 17:38:00,33.5,28.3,29.95,West,261,16.0,18.0,81,0.00,,,0.01,Wunderground v.1.15,2013-03-12 22:38:00,
2013-03-12 17:44:00,32.3,28.9,29.96,WSW,256,19.0,27.0,87,0.00,,,0.01,Wunderground v.1.15,2013-03-12 22:44:00,
2013-03-12 17:50:00,31.1,29.0,29.96,WSW,253,19.0,27.0,92,0.00,,,0.01,Wunderground v.1.15,2013-03-12 22:50:00,
2013-03-12 17:58:00,31.1,29.3,29.96,West,261,15.0,18.0,93,0.00,,,0.01,Wunderground v.1.15,2013-03-12 22:58:00,
2013-03-12 18:04:00,31.4,29.6,29.97,West,275,14.0,15.0,93,0.00,,,0.01,Wunderground v.1.15,2013-03-12 23:04:00,
2013-03-12 18:10:00,31.7,29.9,29.96,WSW,258,12.0,15.0,93,0.00,,,0.01,Wunderground v.1.15,2013-03-12 23:10:00,
2013-03-12 18:16:00,31.6,29.5,29.96,West,259,12.0,16.0,92,0.00,,,0.01,Wunderground v.1.15,2013-03-12 23:16:00,
2013-03-12 18:22:00,31.6,29.5,29.97,West,271,12.0,12.0,92,0.00,,,0.01,Wunderground v.1.15,2013-03-12 23:22:00,
2013-03-12 18:28:00,31.6,29.3,29.97,WSW,253,12.0,18.0,91,0.00,,,0.01,Wunderground v.1.15,2013-03-12 23:28:00,
2013-03-12 18:34:00,31.8,29.2,29.97,WNW,293,14.0,14.0,90,0.00,,,0.01,Wunderground v.1.15,2013-03-12 23:34:00,
2013-03-12 18:40:00,31.7,28.8,29.97,West,262,16.0,21.0,89,0.00,,,0.01,Wunderground v.1.15,2013-03-12 23:40:00,
2013-03-12 18:46:00,31.7,28.3,29.97,West,265,16.0,19.0,87,0.00,,,0.01,Wunderground v.1.15,2013-03-12 23:46:00,
2013-03-12 18:52:00,31.7,28.0,29.97,West,264,16.0,16.0,86,0.00,,,0.01,Wunderground v.1.15,2013-03-12 23:52:00,
2013-03-12 18:58:00,31.9,27.9,29.97,West,278,16.0,25.0,85,0.00,,,0.01,Wunderground v.1.15,2013-03-12 23:58:00,
2013-03-12 19:03:00,31.7,28.0,29.98,West,273,20.0,20.0,86,0.00,,,0.01,Wunderground v.1.15,2013-03-13 00:03:00,
2013-03-12 19:10:00,31.2,27.2,29.98,WNW,288,18.0,20.0,85,0.00,,,0.01,Wunderground v.1.15,2013-03-13 00:10:00,
2013-03-12 19:18:00,31.1,27.1,29.99,West,276,17.0,21.0,85,0.00,,,0.01,Wunderground v.1.15,2013-03-13 00:18:00,
2013-03-12 19:24:00,31.1,26.8,29.99,NW,306,17.0,18.0,84,0.00,,,0.01,Wunderground v.1.15,2013-03-13 00:24:00,
2013-03-12 19:30:00,30.7,25.0,29.99,West,281,19.0,26.0,79,0.00,,,0.01,Wunderground v.1.15,2013-03-13 00:30:00,
2013-03-12 19:36:00,30.5,24.5,29.99,West,281,21.0,25.0,78,0.00,,,0.01,Wunderground v.1.15,2013-03-13 00:36:00,
2013-03-12 19:42:00,30.2,24.2,30.00,West,271,20.0,21.0,78,0.00,,,0.01,Wunderground v.1.15,2013-03-13 00:42:00,
2013-03-12 19:48:00,30.2,24.5,30.00,WNW,285,20.0,24.0,79,0.00,,,0.01,Wunderground v.1.15,2013-03-13 00:48:00,
2013-03-12 19:54:00,30.1,24.4,30.00,WNW,290,21.0,21.0,79,0.00,,,0.01,Wunderground v.1.15,2013-03-13 00:54:00,
2013-03-12 20:00:00,29.9,23.3,30.00,WNW,286,21.0,25.0,76,0.00,,,0.01,Wunderground v.1.15,2013-03-13 01:00:00,
2013-03-12 20:08:00,29.5,22.6,30.01,WNW,284,21.0,25.0,75,0.00,,,0.01,Wunderground v.1.15,2013-03-13 01:08:00,
2013-03-12 20:14:00,29.4,22.8,30.01,WNW,286,20.0,22.0,76,0.00,,,0.01,Wunderground v.1.15,2013-03-13 01:14:00,
2013-03-12 20:20:00,29.5,22.9,30.01,West,279,19.0,19.0,76,0.00,,,0.01,Wunderground v.1.15,2013-03-13 01:20:00,
2013-03-12 20:26:00,29.5,23.8,30.01,WNW,296,16.0,20.0,79,0.00,,,0.01,Wunderground v.1.15,2013-03-13 01:26:00,
2013-03-12 20:32:00,29.2,23.2,30.02,West,275,20.0,20.0,78,0.00,,,0.01,Wunderground v.1.15,2013-03-13 01:32:00,
2013-03-12 20:38:00,29.0,23.6,30.02,WNW,283,21.0,25.0,80,0.00,,,0.01,Wunderground v.1.15,2013-03-13 01:38:00,
2013-03-12 20:44:00,29.0,23.6,30.02,West,279,20.0,23.0,80,0.00,,,0.01,Wunderground v.1.15,2013-03-13 01:44:00,
2013-03-12 20:50:00,28.8,23.4,30.02,WNW,288,19.0,26.0,80,0.00,,,0.01,Wunderground v.1.15,2013-03-13 01:50:00,
2013-03-12 20:56:00,28.4,23.0,30.03,WNW,298,22.0,26.0,80,0.00,,,0.01,Wunderground v.1.15,2013-03-13 01:56:00,
2013-03-12 21:02:00,28.1,23.3,30.03,WNW,282,21.0,21.0,82,0.00,,,0.01,Wunderground v.1.15,2013-03-13 02:02:00,
2013-03-12 21:08:00,27.9,23.4,30.03,WNW,284,17.0,21.0,83,0.00,,,0.01,Wunderground v.1.15,2013-03-13 02:08:00,
2013-03-12 21:14:00,28.0,22.3,30.03,WNW,286,17.0,19.0,79,0.00,,,0.01,Wunderground v.1.15,2013-03-13 02:14:00,
2013-03-12 21:20:00,28.2,22.2,30.04,WNW,296,16.0,19.0,78,0.00,,,0.01,Wunderground v.1.15,2013-03-13 02:20:00,
2013-03-12 21:26:00,28.0,21.7,30.04,WNW,288,16.0,18.0,77,0.00,,,0.01,Wunderground v.1.15,2013-03-13 02:26:00,
2013-03-12 21:32:00,27.8,20.9,30.04,West,276,17.0,17.0,75,0.00,,,0.01,Wunderground v.1.15,2013-03-13 02:32:00,
2013-03-12 21:38:00,27.9,21.6,30.04,West,273,17.0,20.0,77,0.00,,,0.01,Wunderground v.1.15,2013-03-13 02:38:00,
2013-03-12 21:44:00,27.9,21.3,30.04,West,276,18.0,27.0,76,0.00,,,0.01,Wunderground v.1.15,2013-03-13 02:44:00,
2013-03-12 21:50:00,27.9,21.9,30.04,WNW,290,20.0,27.0,78,0.00,,,0.01,Wunderground v.1.15,2013-03-13 02:50:00,
2013-03-12 21:58:00,27.5,20.6,30.04,West,277,20.0,23.0,75,0.00,,,0.01,Wunderground v.1.15,2013-03-13 02:58:00,
2013-03-12 22:04:00,27.3,20.1,30.05,West,281,22.0,24.0,74,0.00,,,0.01,Wunderground v.1.15,2013-03-13 03:04:00,
2013-03-12 22:10:00,27.1,19.9,30.05,WNW,289,21.0,21.0,74,0.00,,,0.01,Wunderground v.1.15,2013-03-13 03:10:00,
2013-03-12 22:16:00,27.2,20.6,30.05,WNW,294,20.0,21.0,76,0.00,,,0.01,Wunderground v.1.15,2013-03-13 03:16:00,
2013-03-12 22:22:00,27.3,20.4,30.05,WNW,286,18.0,19.0,75,0.00,,,0.01,Wunderground v.1.15,2013-03-13 03:22:00,
2013-03-12 22:28:00,27.2,20.6,30.05,West,281,17.0,19.0,76,0.00,,,0.01,Wunderground v.1.15,2013-03-13 03:28:00,
2013-03-12 22:34:00,27.2,20.9,30.05,WNW,288,18.0,23.0,77,0.00,,,0.01,Wunderground v.1.15,2013-03-13 03:34:00,
2013-03-12 22:40:00,27.1,21.2,30.05,WNW,286,18.0,22.0,78,0.00,,,0.01,Wunderground v.1.15,2013-03-13 03:40:00,
2013-03-12 22:46:00,27.1,21.2,30.05,West,281,18.0,24.0,78,0.00,,,0.01,Wunderground v.1.15,2013-03-13 03:46:00,
2013-03-12 22:52:00,27.0,21.1,30.05,WNW,286,19.0,22.0,78,0.00,,,0.01,Wunderground v.1.15,2013-03-13 03:52:00,
2013-03-12 22:58:00,27.0,21.7,30.05,West,279,18.0,22.0,80,0.00,,,0.01,Wunderground v.1.15,2013-03-13 03:58:00,
2013-03-12 23:00:00,27.0,21.4,30.05,WNW,296,18.0,20.0,79,0.00,,,0.01,Wunderground v.1.15,2013-03-13 04:00:00,
2013-03-12 23:02:00,26.9,21.0,30.06,WNW,288,18.0,20.0,78,0.00,,,0.01,Wunderground v.1.15,2013-03-13 04:02:00,
2013-03-12 23:04:00,26.8,20.9,30.05,WNW,285,18.0,20.0,78,0.00,,,0.01,Wunderground v.1.15,2013-03-13 04:04:00,
2013-03-12 23:10:00,26.5,20.3,30.05,West,278,20.0,20.0,77,0.00,,,0.01,Wunderground v.1.15,2013-03-13 04:10:00,
2013-03-12 23:18:00,26.5,20.3,30.06,WNW,284,19.0,20.0,77,0.00,,,0.01,Wunderground v.1.15,2013-03-13 04:18:00,
2013-03-12 23:24:00,26.5,20.6,30.06,West,277,18.0,25.0,78,0.00,,,0.01,Wunderground v.1.15,2013-03-13 04:24:00,
2013-03-12 23:30:00,26.4,20.5,30.06,WNW,301,18.0,18.0,78,0.00,,,0.01,Wunderground v.1.15,2013-03-13 04:30:00,
2013-03-12 23:36:00,26.4,20.5,30.06,NW,309,17.0,19.0,78,0.00,,,0.01,Wunderground v.1.15,2013-03-13 04:36:00,
2013-03-12 23:42:00,26.4,20.8,30.06,WNW,298,16.0,16.0,79,0.00,,,0.01,Wunderground v.1.15,2013-03-13 04:42:00,
2013-03-12 23:48:00,26.4,20.8,30.06,WNW,288,16.0,19.0,79,0.00,,,0.01,Wunderground v.1.15,2013-03-13 04:48:00,
2013-03-12 23:54:00,26.3,21.0,30.06,WNW,287,16.0,17.0,80,0.00,,,0.01,Wunderground v.1.15,2013-03-13 04:54:00,